Wind_Speed
74 72 71 70 70 70 71 72 75 77 75 68 56 46 40 36 32 27 22 13 4 6 14 21 27 31 34 37 40 44 49 59 68 75 77 77 83 94 104 105 103 101 98
72 70 69 69 69 69 70 72 75 76 74 66 52 42 37 33 29 24 21 15 7 0 8 15 21 26 29 32 36 40 45 54 64 69 74 74 76 85 96 103 103 100 98
70 68 68 68 68 69 69 71 73 75 73 65 51 39 33 30 27 23 18 13 7 3 7 13 17 20 24 27 31 36 41 49 59 65 71 72 71 76 87 98 102 99 97
69 67 66 66 67 68 69 70 72 74 73 67 55 40 32 28 24 21 18 14 9 6 8 11 14 17 20 23 27 31 37 44 54 61 67 69 68 70 78 90 100 100 97
67 65 64 64 66 67 68 69 71 73 73 69 60 45 34 28 24 21 18 15 11 7 7 8 10 12 15 19 23 28 33 41 49 57 64 66 65 65 69 81 93 99 98
66 64 62 62 64 66 67 68 69 71 72 71 65 53 40 31 26 22 19 16 12 8 6 6 7 9 13 16 19 24 30 37 46 54 61 63 62 61 63 70 83 94 97
65 63 61 61 62 65 66 67 67 69 71 71 68 61 48 37 29 24 19 16 12 8 5 3 5 9 12 15 17 21 27 34 42 51 58 60 60 57 57 62 73 86 93
64 62 60 59 61 63 64 65 66 67 68 70 70 65 56 45 35 28 23 17 13 8 3 2 6 9 12 15 17 21 25 31 39 46 53 57 57 55 54 57 64 75 85
63 60 59 58 59 60 62 64 64 65 66 68 69 68 62 52 42 33 27 21 15 9 4 3 8 11 13 16 18 21 24 29 36 43 50 54 55 53 51 54 59 67 74
62 59 57 57 58 59 60 62 63 63 64 66 67 68 66 59 49 39 31 24 18 11 5 4 9 12 14 17 19 21 24 28 34 40 46 51 53 52 49 50 55 61 68
62 59 56 56 56 57 58 59 61 62 63 64 65 66 66 63 55 45 36 27 20 13 7 5 9 12 15 17 19 21 23 27 32 38 42 46 50 51 48 47 51 56 63
61 58 56 55 54 55 56 57 58 60 60 60 61 63 64 63 60 52 43 33 24 16 9 6 9 12 15 16 18 20 23 26 30 34 39 42 46 48 47 47 49 53 57
61 58 56 54 53 53 54 54 55 57 58 58 59 60 61 62 61 58 50 39 29 20 11 7 9 12 14 16 18 19 21 24 27 31 34 38 42 45 46 47 50 54 57
59 57 55 53 53 52 52 52 53 54 55 56 57 58 59 59 60 60 56 46 35 24 15 8 8 10 13 15 17 18 20 22 24 26 29 33 37 41 44 47 51 54 59
59 56 54 53 52 51 51 52 52 53 55 56 56 56 56 57 59 59 58 53 43 31 20 11 7 9 12 14 16 17 18 20 21 23 25 28 31 35 39 44 49 55 61
58 56 54 52 50 50 50 51 52 52 53 53 54 55 55 55 56 55 55 54 49 39 27 16 8 7 10 13 14 16 17 18 19 20 22 23 26 29 33 38 44 52 60
57 55 53 51 50 48 47 47 48 50 51 51 51 51 52 52 52 52 51 51 50 46 36 24 12 5 7 11 14 15 16 17 18 19 20 20 21 23 26 31 38 47 56
55 54 52 51 50 49 47 46 46 46 47 49 49 49 48 49 49 48 48 48 47 46 42 33 21 10 3 9 13 15 16 17 18 19 19 20 20 20 21 24 30 39 49
54 53 52 50 49 48 47 46 45 45 45 46 46 46 46 46 46 46 45 44 43 43 42 39 32 20 8 4 11 15 16 17 18 19 20 20 20 19 19 20 24 31 40
53 52 51 50 49 48 47 46 44 43 43 44 44 44 43 43 43 43 42 41 40 39 39 39 37 31 20 8 4 12 17 18 20 20 21 21 21 20 19 20 22 27 34
51 51 50 49 48 47 46 45 44 42 41 42 42 43 42 41 41 41 41 40 38 37 36 35 35 34 29 21 8 4 14 19 21 22 22 23 23 22 21 20 22 25 31
50 50 50 49 48 46 46 45 44 42 40 39 40 40 40 39 38 38 39 38 37 36 34 33 32 31 30 27 21 9 4 15 21 23 24 25 25 24 23 23 23 25 29
48 48 48 48 47 46 45 44 43 42 40 38 38 38 38 37 36 36 36 36 36 35 33 31 30 29 28 27 24 19 10 3 14 22 25 27 27 27 26 25 25 26 29
46 47 47 47 47 45 44 44 43 42 40 38 36 36 36 35 34 34 34 34 34 34 33 31 30 28 27 26 24 22 17 9 4 14 23 28 29 30 29 29 28 28 30
44 45 46 46 46 45 44 43 42 42 40 37 36 34 34 34 33 32 32 33 33 33 32 31 30 29 28 27 26 23 19 14 8 5 15 24 30 33 33 33 32 32 32
42 43 44 45 45 44 43 42 42 41 39 37 35 33 33 32 32 31 30 31 31 31 30 30 29 29 29 29 28 27 23 17 11 7 8 17 26 32 36 37 37 37 36
Wind_Direction
345 345 347 348 350 351 351 352 353 353 352 351 351 353 360 8 17 24 30 37 46 221 226 231 234 234 233 231 226 221 215 211 211 213 213 213 212 210 207 205 206 207 209
347 348 349 351 353 354 355 356 357 357 357 356 354 354 0 9 18 24 29 36 44 188 228 232 234 234 233 229 224 220 215 210 208 211 212 211 212 211 208 205 204 205 208
349 350 351 353 355 356 358 359 0 1 1 360 357 354 357 3 11 15 17 19 16 314 249 240 236 233 230 225 222 218 214 208 206 207 210 210 210 210 209 206 203 202 206
350 352 353 355 357 359 0 2 3 4 4 4 1 356 353 356 358 360 0 357 344 311 271 251 240 232 225 220 218 215 211 206 203 204 208 208 208 209 209 207 205 202 204
352 353 355 357 359 1 2 4 5 6 7 8 7 2 354 350 349 347 346 346 337 312 280 258 239 224 215 213 212 210 208 204 201 202 205 206 206 207 207 208 207 204 202
353 355 356 358 0 2 4 5 6 8 9 10 11 9 3 355 350 347 344 340 334 313 285 256 225 206 198 198 200 202 202 200 199 199 202 204 205 205 207 208 208 207 203
355 356 358 359 1 4 5 7 8 9 11 12 13 13 10 5 358 354 350 346 340 329 302 239 194 184 182 183 185 190 194 195 196 197 200 203 204 204 206 208 210 210 207
356 357 359 0 2 4 6 8 9 11 12 14 15 16 15 12 8 2 358 356 353 351 344 181 168 167 169 170 174 179 185 189 191 193 198 201 202 204 206 208 209 211 211
358 358 359 1 3 5 7 9 11 12 13 14 16 17 17 16 14 10 7 6 5 7 22 137 155 157 159 161 165 171 177 183 186 189 194 198 200 203 206 207 208 209 211
359 359 360 2 4 6 8 10 12 13 14 15 17 18 19 19 18 16 14 12 13 17 39 121 148 153 155 158 161 165 171 178 182 186 191 196 199 202 205 207 207 208 208
360 360 1 3 5 7 9 11 12 14 15 16 17 19 20 21 21 20 19 18 19 24 47 110 143 150 153 156 159 162 168 173 178 183 188 194 198 201 204 204 203 204 206
0 1 2 3 5 8 9 11 13 15 16 16 17 19 20 22 23 23 23 22 23 28 47 99 138 149 154 155 157 161 165 171 176 181 187 193 198 201 203 203 201 200 201
0 1 2 3 5 8 10 11 13 15 16 17 18 19 20 22 24 25 25 24 25 30 44 88 130 147 153 156 156 159 163 168 174 179 186 193 198 202 204 205 202 198 196
0 1 2 3 5 7 10 11 13 15 16 17 19 20 20 21 23 26 27 26 27 31 41 72 122 145 152 156 157 159 163 168 173 179 186 192 199 204 207 207 205 201 196
1 1 2 2 3 6 8 11 13 14 15 17 18 19 20 21 22 24 26 27 28 31 37 54 103 145 156 160 162 163 165 170 174 180 187 194 200 205 209 211 209 206 200
1 1 2 2 3 4 6 8 11 13 15 15 16 18 19 21 22 23 24 27 28 30 33 42 70 137 163 168 169 170 171 174 177 181 187 193 199 204 207 210 211 209 205
0 1 2 2 3 3 4 7 9 11 13 14 15 17 19 20 21 22 23 25 28 30 32 36 46 93 163 177 179 179 179 181 182 185 188 192 197 202 206 208 209 209 207
360 0 1 1 2 2 3 4 6 9 11 13 14 15 17 18 20 21 22 24 26 28 31 33 36 47 128 182 189 189 189 189 189 189 190 191 194 198 201 203 204 205 206
359 360 0 1 1 1 2 2 4 6 9 11 12 13 14 16 19 20 21 22 24 26 29 32 34 36 46 170 196 198 198 197 196 195 194 193 193 195 197 199 200 200 201
359 359 360 360 0 1 1 1 2 3 5 8 10 12 13 14 17 19 20 21 22 24 27 29 32 33 35 38 196 204 204 203 202 201 199 197 196 195 195 195 195 195 197
358 359 359 359 359 0 1 1 1 1 3 5 7 9 10 12 14 17 19 20 22 23 24 26 28 30 32 33 31 212 210 208 206 205 204 202 199 197 194 193 193 193 192
358 359 359 358 358 359 0 1 1 1 1 3 5 7 8 9 11 14 16 18 20 21 22 23 24 25 27 28 28 27 227 214 211 209 207 206 204 200 196 194 193 192 191
357 358 358 358 357 358 359 0 1 1 1 1 3 5 6 8 9 12 14 16 18 20 20 21 21 22 22 23 23 23 19 245 217 213 211 209 207 205 201 197 194 192 191
356 357 357 357 356 357 358 359 0 1 1 0 1 3 5 6 8 9 12 14 16 17 19 20 20 20 20 19 18 17 15 8 262 220 215 212 210 208 205 201 197 193 191
354 356 356 356 356 356 357 358 359 360 0 360 1 2 3 5 6 8 10 12 14 15 17 19 20 20 19 18 15 13 9 4 351 256 220 215 213 211 209 206 202 197 194
353 354 355 355 355 354 355 357 358 359 359 360 0 1 3 4 5 6 9 11 12 14 15 17 19 20 19 17 16 12 9 1 348 319 246 220 214 213 212 209 206 203 199
Height
5545 5527 5510 5493 5475 5456 5438 5419 5398 5377 5355 5334 5317 5305 5295 5285 5277 5271 5267 5265 5267 5270 5274 5278 5282 5288 5294 5301 5308 5317 5327 5339 5354 5369 5385 5401 5419 5438 5461 5485 5507 5529 5548
5541 5523 5506 5489 5472 5454 5436 5417 5396 5375 5354 5334 5318 5307 5299 5291 5284 5279 5276 5273 5272 5272 5274 5276 5279 5283 5288 5294 5301 5310 5319 5331 5346 5360 5375 5392 5409 5427 5447 5471 5493 5514 5534
5537 5520 5504 5487 5470 5453 5435 5416 5396 5376 5355 5336 5320 5309 5302 5295 5290 5285 5281 5278 5276 5274 5274 5275 5277 5280 5284 5290 5296 5304 5313 5324 5338 5352 5367 5384 5401 5418 5437 5458 5479 5501 5520
5534 5518 5502 5486 5469 5452 5434 5416 5398 5378 5358 5339 5323 5311 5303 5297 5292 5288 5284 5281 5277 5275 5274 5274 5275 5278 5281 5287 5293 5300 5309 5319 5332 5346 5360 5377 5393 5410 5427 5446 5466 5486 5507
5532 5516 5501 5485 5468 5451 5434 5417 5399 5381 5362 5343 5327 5314 5305 5298 5293 5288 5284 5281 5277 5275 5273 5273 5274 5276 5279 5284 5290 5297 5306 5315 5327 5340 5355 5371 5387 5404 5419 5436 5455 5474 5494
5531 5515 5500 5485 5469 5453 5436 5419 5402 5385 5367 5349 5332 5318 5307 5299 5293 5288 5283 5279 5276 5274 5273 5272 5274 5276 5279 5283 5289 5295 5303 5312 5323 5336 5350 5366 5382 5398 5414 5429 5446 5463 5483
5530 5514 5500 5485 5470 5454 5438 5422 5406 5390 5372 5355 5338 5323 5310 5301 5293 5287 5283 5279 5276 5273 5272 5273 5274 5276 5280 5284 5289 5295 5302 5310 5321 5333 5347 5363 5379 5395 5410 5424 5437 5453 5470
5529 5514 5500 5486 5471 5456 5441 5426 5410 5394 5378 5362 5346 5330 5316 5305 5296 5289 5284 5279 5276 5274 5273 5274 5275 5278 5281 5286 5291 5296 5303 5310 5320 5332 5346 5362 5376 5389 5403 5416 5430 5445 5461
5529 5514 5501 5488 5474 5459 5444 5430 5415 5400 5385 5370 5354 5338 5324 5311 5301 5293 5286 5282 5279 5276 5276 5276 5278 5280 5284 5288 5293 5298 5305 5312 5320 5331 5344 5358 5373 5386 5398 5411 5424 5438 5453
5530 5516 5503 5489 5475 5461 5447 5433 5419 5405 5391 5376 5361 5346 5332 5318 5307 5298 5291 5285 5282 5279 5279 5279 5281 5283 5287 5291 5296 5301 5307 5314 5322 5332 5344 5357 5370 5383 5395 5406 5418 5431 5445
5531 5517 5504 5491 5477 5464 5450 5437 5423 5409 5395 5382 5368 5354 5341 5328 5315 5305 5296 5290 5286 5284 5283 5283 5285 5287 5291 5295 5300 5305 5310 5317 5324 5333 5344 5356 5368 5381 5392 5402 5413 5425 5438
5532 5518 5506 5493 5480 5467 5454 5441 5429 5416 5403 5391 5378 5365 5352 5339 5326 5313 5303 5296 5291 5289 5288 5288 5290 5292 5295 5299 5304 5308 5314 5320 5327 5335 5345 5355 5366 5377 5388 5398 5408 5419 5431
5531 5519 5507 5495 5483 5471 5459 5447 5435 5423 5411 5399 5386 5373 5361 5349 5336 5323 5312 5304 5298 5294 5293 5293 5295 5297 5300 5304 5308 5312 5317 5323 5329 5337 5345 5354 5364 5374 5384 5394 5403 5414 5425
5532 5519 5507 5496 5485 5474 5463 5452 5440 5429 5418 5406 5393 5382 5370 5358 5346 5333 5323 5313 5306 5301 5299 5299 5300 5302 5305 5308 5312 5316 5321 5326 5331 5338 5345 5353 5361 5370 5379 5388 5398 5408 5419
5533 5520 5508 5497 5486 5475 5466 5456 5445 5433 5421 5410 5399 5389 5377 5366 5354 5343 5333 5323 5315 5309 5306 5305 5305 5307 5310 5313 5316 5320 5324 5329 5334 5339 5345 5352 5359 5367 5374 5382 5392 5402 5412
5534 5522 5510 5499 5488 5478 5467 5456 5446 5437 5426 5415 5405 5394 5384 5373 5363 5354 5344 5335 5326 5318 5313 5311 5311 5312 5314 5317 5320 5323 5327 5331 5335 5340 5346 5351 5357 5363 5370 5377 5384 5394 5404
5535 5523 5512 5501 5491 5482 5472 5462 5452 5441 5430 5421 5411 5402 5392 5382 5373 5364 5354 5345 5337 5329 5322 5317 5316 5316 5317 5320 5323 5326 5329 5333 5337 5341 5346 5351 5356 5361 5366 5372 5378 5386 5396
5536 5525 5514 5503 5493 5483 5474 5465 5455 5446 5437 5427 5417 5408 5399 5390 5381 5372 5363 5355 5347 5339 5332 5325 5321 5320 5320 5322 5325 5328 5331 5334 5338 5342 5346 5350 5355 5359 5363 5368 5373 5380 5389
5537 5525 5514 5504 5494 5484 5475 5466 5457 5448 5440 5431 5422 5413 5405 5396 5387 5379 5371 5363 5356 5348 5341 5334 5328 5325 5323 5324 5326 5328 5331 5335 5338 5342 5346 5350 5354 5358 5362 5366 5371 5376 5383
5537 5526 5515 5505 5495 5485 5476 5467 5458 5450 5442 5434 5426 5418 5410 5401 5393 5386 5378 5370 5363 5356 5349 5343 5337 5331 5328 5326 5326 5328 5331 5334 5338 5342 5345 5349 5353 5357 5361 5365 5369 5374 5380
5537 5526 5516 5506 5496 5487 5477 5468 5460 5451 5443 5435 5427 5420 5412 5405 5397 5390 5383 5375 5368 5362 5355 5350 5344 5339 5334 5330 5328 5328 5330 5333 5336 5340 5344 5348 5352 5356 5360 5364 5368 5373 5378
5537 5526 5516 5506 5497 5487 5478 5470 5461 5452 5444 5437 5429 5422 5415 5408 5401 5394 5387 5380 5373 5367 5361 5355 5350 5345 5340 5336 5332 5330 5329 5331 5334 5338 5342 5346 5350 5354 5359 5363 5367 5372 5377
5536 5526 5516 5506 5497 5488 5479 5470 5462 5453 5445 5437 5431 5424 5417 5410 5404 5397 5390 5384 5377 5371 5365 5359 5354 5350 5345 5340 5336 5333 5331 5330 5331 5334 5338 5343 5347 5352 5356 5361 5366 5370 5376
5536 5525 5516 5506 5497 5488 5479 5471 5462 5454 5446 5438 5431 5425 5418 5412 5406 5399 5393 5387 5381 5375 5369 5363 5358 5353 5348 5344 5340 5336 5332 5330 5329 5331 5334 5338 5343 5348 5353 5358 5363 5368 5374
5534 5524 5515 5506 5497 5488 5479 5471 5463 5454 5447 5439 5432 5426 5420 5413 5407 5401 5395 5389 5383 5378 5372 5366 5361 5356 5351 5347 5342 5337 5334 5330 5329 5328 5329 5333 5337 5343 5348 5354 5360 5365 5371
5532 5523 5514 5505 5496 5487 5479 5471 5463 5455 5447 5440 5433 5427 5421 5414 5408 5403 5397 5392 5386 5380 5375 5369 5364 5359 5354 5349 5344 5338 5334 5330 5327 5326 5325 5327 5331 5336 5342 5348 5354 5361 5367